Dewpoint
65 65 65 66 66 66 66 65 66 66 66 65 64 64 63 64 64 63 63 62 61 60 58 57 54 48 45 44 44 46 47 49
64 64 64 65 65 65 65 66 65 64 64 63 63 62 62 62 63 62 62 61 59 58 56 54 49 44 42 42 43 44 45 49
62 63 63 63 62 64 64 64 63 62 60 58 56 56 56 57 61 62 61 60 58 56 52 48 45 40 38 41 43 39 45 51
60 59 57 60 61 61 62 61 58 56 56 55 56 57 57 59 60 60 60 58 56 51 49 48 44 40 42 43 38 39 44 48
56 55 55 55 54 56 57 58 57 56 57 56 58 58 58 59 57 56 55 52 47 46 49 48 48 46 44 42 40 36 43 45
54 54 54 53 52 51 52 55 58 57 56 58 58 58 58 56 55 54 50 48 43 45 50 47 45 44 43 41 38 38 43 46
55 54 54 54 54 53 53 57 57 55 56 57 58 55 57 56 55 53 51 51 50 51 48 46 44 43 41 38 37 37 36 47
54 55 55 55 56 56 57 56 57 54 55 56 56 57 56 56 55 54 53 51 51 50 48 44 45 42 39 36 36 36 35 44
53 53 54 54 54 55 56 54 46 49 53 54 55 52 54 56 53 53 53 51 51 48 45 44 41 39 38 36 36 34 35 36
51 52 52 52 50 48 51 50 49 50 52 56 55 55 56 57 55 53 51 51 49 46 45 43 41 39 37 36 35 35 35 34
49 50 49 49 47 46 48 50 54 54 52 58 58 58 56 56 55 53 52 50 50 47 46 44 40 37 37 36 36 37 36 34
45 46 48 49 49 44 49 51 53 53 54 59 59 58 57 56 56 54 51 51 49 46 45 41 41 38 34 34 38 38 37 36
49 50 51 52 52 52 54 49 51 52 56 58 59 59 57 56 56 54 52 51 49 48 45 39 37 37 36 37 38 39 38 37
54 55 54 53 55 56 54 50 49 51 58 59 59 60 56 56 56 54 53 52 50 48 44 41 40 39 40 41 40 40 39 39
53 54 55 55 56 55 54 50 49 49 58 59 59 58 57 55 55 55 54 53 50 48 45 42 39 40 41 40 39 38 37 39
52 51 51 53 53 51 51 47 45 49 56 58 58 58 58 56 55 55 54 51 50 49 46 42 40 40 42 42 40 40 36 31
53 52 52 53 54 54 52 48 47 49 54 55 57 58 58 57 56 54 53 51 48 47 44 41 41 43 42 43 44 45 39 34
54 52 52 52 53 53 54 51 51 52 54 55 57 58 58 57 54 54 50 48 48 48 48 43 45 44 45 44 45 43 35 34
53 53 52 52 53 55 54 55 53 53 54 56 57 57 55 54 49 48 49 50 50 49 46 45 46 44 46 47 47 40 34 34
51 52 52 51 53 54 56 55 56 56 56 58 57 56 53 51 50 49 50 49 47 46 45 45 45 45 46 46 44 39 35 33
Wind_Speed
17 21 22 23 24 23 24 25 25 23 23 21 21 22 22 21 21 21 21 20 19 18 16 14 12 10 10 12 14 14 12 17
16 15 20 19 21 24 24 23 26 27 22 20 21 21 23 22 19 19 19 19 18 18 16 14 11 6 5 6 8 13 19 20
17 18 19 22 20 24 25 27 22 25 22 20 18 13 16 15 17 18 17 17 18 16 15 14 12 8 3 3 7 10 18 17
18 17 15 16 19 19 22 19 15 15 17 14 13 12 12 15 15 17 16 15 15 14 12 13 10 7 3 3 7 7 16 15
16 18 17 19 17 17 14 14 13 10 8 12 13 12 13 12 12 10 10 11 9 9 7 7 7 13 11 11 11 7 14 14
18 18 19 20 18 14 18 16 6 8 6 10 10 9 12 13 12 11 10 11 12 10 7 7 8 9 8 9 9 11 12 13
15 15 20 17 15 11 18 9 3 5 7 8 9 11 11 13 12 14 13 11 9 8 9 7 6 7 6 7 7 6 7 12
18 17 16 17 12 11 10 13 14 14 12 9 12 10 9 9 9 10 10 9 11 10 11 8 7 11 6 7 7 7 6 10
20 20 17 13 11 14 15 18 14 14 12 10 8 6 8 5 8 9 10 13 11 7 6 5 6 8 10 5 7 1 5 4
19 21 21 18 17 20 17 21 16 10 14 15 12 11 12 7 11 10 11 8 6 7 7 8 6 7 9 8 6 5 5 1
23 23 25 22 24 20 16 12 9 11 13 12 12 9 12 11 12 11 10 10 9 10 9 8 8 3 8 5 3 2 8 7
24 24 23 19 19 19 13 14 13 13 11 14 16 13 15 15 10 13 10 9 10 7 8 4 6 11 8 10 8 8 5 5
22 21 20 20 19 22 19 17 15 16 16 17 17 18 17 15 10 14 12 11 13 13 6 9 5 2 2 8 11 14 8 6
26 25 23 21 18 16 16 16 16 16 13 16 14 26 18 15 14 15 15 12 12 12 11 9 9 11 4 5 6 5 9 11
26 28 29 26 25 22 20 16 18 18 16 13 13 19 14 16 16 11 15 15 13 13 11 10 11 7 6 1 3 2 1 12
28 29 29 27 25 21 21 18 18 16 18 16 15 15 12 11 14 13 11 12 7 11 8 8 7 8 10 10 4 1 1 4
29 27 28 27 26 25 20 20 19 18 13 17 15 12 10 13 11 13 8 6 4 7 4 6 5 3 2 1 3 8 10 10
27 27 27 27 26 27 22 21 18 16 15 16 16 16 16 14 6 10 12 11 9 3 4 11 6 4 2 2 5 9 7 8
27 28 27 26 25 25 26 20 20 19 17 21 17 16 16 17 16 17 17 13 14 13 14 11 6 4 1 5 6 16 7 7
32 31 31 28 26 25 25 31 19 15 18 13 17 18 18 18 13 10 10 15 16 18 16 13 10 6 9 10 11 8 7 8
Wind_Direction
107 107 110 112 113 116 118 116 110 102 100 104 108 107 105 106 112 116 114 113 111 107 100 94 85 73 46 36 19 4 90 97
98 109 106 104 108 108 105 101 106 102 99 105 104 102 106 104 108 114 115 116 113 110 109 103 101 89 68 31 356 325 90 84
100 97 125 114 114 111 102 102 103 108 113 120 108 117 113 105 114 114 114 117 118 121 127 131 139 135 115 22 334 30 91 89
107 100 98 108 129 122 114 121 113 118 127 126 100 118 114 113 109 112 118 121 129 139 151 155 165 158 122 40 46 40 96 93
101 105 101 96 89 93 103 109 103 117 127 100 113 119 110 109 119 118 123 135 139 156 166 204 69 63 59 39 18 57 99 90
99 100 98 101 96 102 108 92 44 112 84 106 127 141 133 136 145 142 171 177 171 195 112 87 94 92 89 67 34 34 81 104
108 103 103 98 103 120 118 125 161 190 134 168 170 163 154 158 178 161 192 200 182 124 134 156 128 94 77 105 100 53 40 113
99 99 95 110 129 126 140 165 179 196 186 181 195 205 179 181 152 175 182 155 191 170 172 165 170 123 93 56 41 76 47 100
120 121 122 131 147 171 179 166 177 192 211 209 198 189 165 172 170 204 178 198 173 115 121 116 130 102 113 162 137 140 105 36
141 145 146 158 152 151 172 194 186 202 211 198 192 201 164 207 212 185 187 136 140 151 184 187 159 169 159 168 125 128 111 105
162 167 175 179 167 181 204 210 230 235 203 170 186 209 174 203 222 187 153 155 200 181 209 181 152 180 165 157 124 223 168 198
167 175 176 182 171 185 204 210 214 229 230 179 188 207 191 201 234 154 161 197 191 193 186 154 163 202 227 174 182 215 215 180
172 184 185 179 185 197 214 194 204 210 220 193 184 211 181 183 225 152 179 221 195 197 159 159 217 107 290 245 219 201 211 211
186 186 189 192 192 210 219 199 213 214 190 205 185 224 172 187 216 173 184 225 202 174 172 182 211 174 206 304 275 167 204 213
193 186 189 195 197 205 215 197 205 210 187 196 221 200 189 188 203 188 189 218 191 176 191 207 202 172 186 239 302 333 284 192
194 194 195 201 206 210 203 200 211 219 188 191 192 204 206 199 196 206 199 202 194 182 188 216 240 189 191 195 225 228 322 298
197 199 198 200 203 217 202 199 208 209 207 183 175 169 203 206 231 184 191 162 40 157 170 204 170 95 79 7 331 273 215 229
196 205 205 207 201 207 224 204 211 217 196 194 181 187 204 191 182 163 124 118 109 111 192 168 144 122 145 264 271 280 251 234
198 203 214 210 206 200 207 227 208 220 227 200 180 182 169 171 146 160 157 162 178 177 175 151 155 192 261 283 254 267 273 290
197 201 208 215 207 204 196 204 213 214 244 208 178 199 181 168 167 168 184 163 168 171 158 166 164 192 245 252 266 256 319 296